This is the latest recevied weather packets stored in our database for station/object KC4JES. If no packets are shown the sender has not sent any weather packets the latest 10 day(s).
| Time | Temp. | Humidity | Pressure | Rain* | Wind** | Luminosity | Snow |
|---|---|---|---|---|---|---|---|
| 1778024579 | 22.78° C | 60% | 1016.2 hPa | 0 mm | - | 9 W/m² | - |
| 1778024275 | 22.78° C | 60% | 1016.2 hPa | 0 mm | - | 12 W/m² | - |
| 1778023973 | 23.33° C | 60% | 1016.3 hPa | 0 mm | - | 12 W/m² | - |
| 1778023670 | 23.33° C | 60% | 1016.1 hPa | 0 mm | - | 13 W/m² | - |
| 1778023368 | 23.33° C | 61% | 1016.4 hPa | 0 mm | - | 15 W/m² | - |
| 1778023064 | 23.33° C | 61% | 1016.3 hPa | 0 mm | - | 20 W/m² | - |
| 1778022763 | 23.33° C | 60% | 1016.1 hPa | 0 mm | - | 26 W/m² | - |
| 1778022461 | 23.33° C | 59% | 1016.2 hPa | 0 mm | - | 25 W/m² | - |
| 1778022157 | 23.89° C | 59% | 1016.4 hPa | 0 mm | - | 22 W/m² | - |
| 1778021854 | 23.89° C | 59% | 1016.6 hPa | 0 mm | - | 26 W/m² | - |
| 1778021551 | 23.89° C | 59% | 1016.4 hPa | 0 mm | - | 32 W/m² | - |
| 1778021246 | 23.89° C | 59% | 1016.2 hPa | 0 mm | - | 31 W/m² | - |
| 1778020944 | 23.89° C | 58% | 1016.2 hPa | 0 mm | - | 31 W/m² | - |
| 1778020641 | 23.89° C | 58% | 1016.3 hPa | 0 mm | - | 32 W/m² | - |
| 1778020337 | 23.89° C | 58% | 1016.4 hPa | 0 mm | - | 35 W/m² | - |
| 1778020034 | 24.44° C | 57% | 1016.4 hPa | 0 mm | - | 45 W/m² | - |
| 1778019729 | 24.44° C | 56% | 1016.2 hPa | 0 mm | - | 51 W/m² | - |
| 1778019427 | 24.44° C | 57% | 1016.5 hPa | 0 mm | - | 51 W/m² | - |
| 1778019124 | 24.44° C | 58% | 1016.2 hPa | 0 mm | - | 52 W/m² | - |
| 1778018821 | 24.44° C | 55% | 1016.4 hPa | 0 mm | - | 50 W/m² | - |
| 1778018518 | 24.44° C | 55% | 1016.7 hPa | 0 mm | - | 58 W/m² | - |
| 1778018216 | 24.44° C | 55% | 1016.3 hPa | 0 mm | - | 47 W/m² | - |
| 1778017914 | 24.44° C | 54% | 1016.4 hPa | 0 mm | - | 51 W/m² | - |
| 1778017611 | 25° C | 55% | 1016.4 hPa | 0 mm | - | 50 W/m² | - |
| 1778017309 | 25.56° C | 54% | 1016.5 hPa | 0 mm | - | 75 W/m² | - |
* Rain latest hour (hover to see other rain measurements)
** Current wind speed in m/s (hover to see current wind gust speed)